Mobile, AL

7:24 AM CST on February 19, 2017 (GMT -0600)
Mobile Regional

Weather History for KMOB - November, 2013

Change the Weather History Date:

Sunday, November 24, 2013

  Actual Average Record
Temperature  
Mean Temperature 46 °F 57 °F  
Max Temperature 53 °F 68 °F 81 °F (1973)
Min Temperature 39 °F 46 °F 24 °F (1970)
Degree Days  
Heating Degree Days 19 9  
Month to date heating degree days 135 145  
Since 1 July heating degree days 165 200  
Cooling Degree Days 0 1  
Month to date cooling degree days 15 36  
Year to date cooling degree days 2495 2498  
Moisture  
Dew Point 25 °F    
Average Humidity 47    
Maximum Humidity 66    
Minimum Humidity 28    
Precipitation  
Precipitation 0.00 in 0.16 in 2.85 in (2000)
Month to date precipitation 1.53 4.13  
Year to date precipitation 60.01 60.09  
Snow  
Snow 0.00 in 0.00 in 0.00 in (2002)
Month to date snowfall 0.0 0.0  
Since 1 July snowfall 0.0 0.0  
Snow Depth 0.00 in    
Sea Level Pressure  
Sea Level Pressure 30.33 in    
Wind  
Wind Speed 13 mph (NNE)    
Max Wind Speed 24 mph    
Max Gust Speed 30 mph    
Visibility 10 miles    
Events      
T = Trace of Precipitation, MM = Missing Value Source: NWS Daily Summary

Daily Weather History Graph

Daily Weather History Graph

Search for Another Location

Airport or City:

Trip Planner

Search our weather history database for the weather conditions in past years. The results will help you decide how hot, cold, wet, or windy it might be!

Date:

Astronomy

Nov. 24, 2013 Rise Set
Actual Time 6:27 AM CST 4:52 PM CST
Civil Twilight 6:01 AM CST 5:18 PM CST
Nautical Twilight 5:31 AM CST 5:47 PM CST
Astronomical Twilight 5:02 AM CST 6:16 PM CST
Moon 11:04 PM CST (11/24) 11:26 AM CST (11/24)
Length of Visible Light 11h 16m
Length of Day
10h 25m
Waning Gibbous, 60% of the Moon is Illuminated
Nov 24
Waning Gibbous
Nov 25
Last Quarter
Dec 2
New
Dec 9
First Quarter
Dec 17
Full

Hourly Weather History & Observations

Time (CST) Temp. Windchill Dew Point Humidity Pressure Visibility Wind Dir Wind Speed Gust Speed Precip Events Conditions
12:56 AM 46.9 °F - 36.0 °F 66% 30.30 in 10.0 mi North 21.9 mph 29.9 mph N/A   Overcast
1:56 AM 46.0 °F 40.6 °F 34.0 °F 63% 30.31 in 10.0 mi North 11.5 mph 20.7 mph N/A   Overcast
2:56 AM 44.1 °F 36.8 °F 30.9 °F 60% 30.32 in 10.0 mi North 16.1 mph 23.0 mph N/A   Clear
3:56 AM 43.0 °F 34.8 °F 28.9 °F 58% 30.32 in 10.0 mi NNE 18.4 mph 25.3 mph N/A   Partly Cloudy
4:56 AM 41.0 °F 32.2 °F 27.0 °F 57% 30.32 in 10.0 mi North 18.4 mph - N/A   Clear
5:56 AM 39.9 °F 31.1 °F 27.0 °F 60% 30.34 in 10.0 mi North 17.3 mph 24.2 mph N/A   Scattered Clouds
6:56 AM 39.0 °F 30.3 °F 26.1 °F 60% 30.37 in 10.0 mi North 16.1 mph 23.0 mph N/A   Scattered Clouds
7:56 AM 41.0 °F 33.1 °F 26.1 °F 55% 30.37 in 10.0 mi NNE 15.0 mph - N/A   Scattered Clouds
8:56 AM 42.1 °F 33.3 °F 25.0 °F 51% 30.39 in 10.0 mi North 19.6 mph 26.5 mph N/A   Scattered Clouds
9:56 AM 46.0 °F 38.8 °F 21.9 °F 39% 30.38 in 10.0 mi North 18.4 mph 25.3 mph N/A   Scattered Clouds
10:56 AM 48.9 °F - 21.0 °F 33% 30.35 in 10.0 mi North 17.3 mph 25.3 mph N/A   Scattered Clouds
11:56 AM 50.0 °F - 21.0 °F 32% 30.33 in 10.0 mi North 18.4 mph - N/A   Scattered Clouds
12:56 PM 51.8 °F - 19.4 °F 28% 30.31 in 10.0 mi NNE 13.8 mph 25.3 mph N/A   Mostly Cloudy
1:56 PM 51.8 °F - 21.2 °F 30% 30.30 in 10.0 mi North 15.0 mph - N/A   Mostly Cloudy
2:56 PM 52.0 °F - 21.0 °F 30% 30.30 in 10.0 mi North 16.1 mph - N/A   Scattered Clouds
3:56 PM 51.1 °F - 21.9 °F 32% 30.30 in 10.0 mi NNE 10.4 mph 18.4 mph N/A   Scattered Clouds
4:56 PM 46.9 °F - 25.0 °F 42% 30.32 in 10.0 mi North 4.6 mph - N/A   Clear
5:56 PM 45.0 °F 41.2 °F 27.0 °F 49% 30.33 in 10.0 mi North 6.9 mph - N/A   Clear
6:56 PM 44.1 °F 40.8 °F 26.1 °F 49% 30.35 in 10.0 mi NNE 5.8 mph - N/A   Clear
7:56 PM 42.1 °F 37.1 °F 27.0 °F 55% 30.35 in 10.0 mi North 8.1 mph - N/A   Clear
8:56 PM 41.0 °F 35.2 °F 25.0 °F 53% 30.35 in 10.0 mi NNE 9.2 mph - N/A   Clear
9:56 PM 41.0 °F 35.8 °F 25.0 °F 53% 30.34 in 10.0 mi NNE 8.1 mph - N/A   Clear
10:56 PM 39.9 °F 34.5 °F 25.0 °F 55% 30.34 in 10.0 mi NNE 8.1 mph - N/A   Clear
11:56 PM 39.0 °F 34.0 °F 25.0 °F 57% 30.32 in 10.0 mi NE 6.9 mph - N/A   Clear